Starlink 34445

operational
NORAD ID: 64457 Int'l Des: 2025-130 Owner: SPXS Country: US Constellation: starlink
LEOCIRCULAR

Starlink 34445について

説明を読み込み中...

リアルタイム位置

3D地球を読み込み中...

次回通過

高度履歴

Altitude vs Time

uPlot chart will show altitude changes over time

軌道要素

1 64457U 25130V 25340.88638521 .00044693 00000-0 15101-2 0 9998
2 64457 53.1592 159.6569 0001229 58.0141 302.0979 15.30241590 26498
Epoch: Dec 6, 2025 • Age: 15 hours

現在のステータス

高度 493.3 km
速度 7.62 km/s
衛星直下点 -51.31°S, 177.56°W
打ち上げ日 Jun 18, 2025
運用期間 0.4 years
タイプ internet

技術仕様

分類 Payload
質量 575.00 kg
乾燥質量 530.00 kg
総質量 575.00 kg
長さ 0.30 m
直径 4.10 m
スパン 29.00 m
形状 Box + pan
製造者 SPXS
バスタイプ Starlink V2MO
フェーズステータス In Orbit
所有者/国 SPXS/US

大規模コンステレーション

Loading constellations...